User: anonymous
Location: Unspecified
(0.0000°N, 0.0000°E)
Time: 11:03:55
(UTC+02:00)
Language:

Cosmos 1626 Rocket - Orbit

View from above orbital plane
View from above orbital plane
View from above satellite
View from above satellite

Ground track
Ground track

The orbit data is extracted from the following two-line orbital elements,

1 15495U 85009B   14210.14750042  .00000221  00000-0  24039-4 0  8386
2 15495 082.5243 094.5001 0020075 202.3161 157.7182 14.83246611593686
Epoch (UTC): 29 July 2014 03:32:24
Eccentricity: 0.0020075
inclination: 82.5243°
perigee height: 605 km
apogee height: 633 km
right ascension of ascending node: 94.5001°
argument of perigee: 202.3161°
revolutions per day: 14.83246611
mean anomaly at epoch: 157.7182°
orbit number at epoch: 59368

The dashed part of the orbit path shows where the satellite is in the earth's shadow,  

DLR